Temperature
22 21 21 21 26 28 27 27 28 27 26 25 25 25 25 24 24 22 20 19 19 19 18 18 19 19 19 19 18 18 18 18 18 18 18 18 18 18 18 18 18 18 18 18 18 18 18 18 18
21 21 22 25 29 28 27 27 27 27 26 25 24 24 24 23 21 20 19 19 19 19 18 18 19 19 19 19 18 18 18 18 18 18 18 18 18 18 18 18 18 18 18 18 18 18 18 18 18
21 21 25 29 29 28 27 27 27 26 25 25 24 24 23 22 21 20 19 19 19 19 18 18 19 19 19 19 18 18 18 18 18 18 18 18 18 18 18 18 18 18 18 18 18 18 18 18 18
22 24 27 29 28 28 28 28 27 27 25 25 25 24 22 20 20 20 19 19 19 19 18 18 19 19 19 19 18 18 18 18 18 18 18 18 18 18 18 18 18 18 18 18 18 18 18 18 18
23 27 29 29 28 28 28 28 27 27 26 25 25 24 22 20 20 19 19 19 19 19 19 18 19 19 19 19 18 18 18 18 18 18 18 18 18 18 18 18 18 18 18 18 18 18 18 18 18
27 30 29 28 28 28 28 27 27 27 26 25 25 24 21 19 19 19 19 19 19 19 19 18 19 19 19 19 19 18 18 18 18 18 18 18 18 18 18 18 18 18 18 18 18 18 18 18 18
29 30 29 29 28 28 28 28 28 27 27 26 25 25 22 20 19 19 19 19 19 19 19 18 18 18 18 18 19 18 18 18 18 18 18 18 18 18 18 18 18 18 18 18 18 18 18 18 18
28 30 30 30 29 29 28 27 27 27 26 25 25 25 23 20 19 19 19 19 19 19 19 18 18 18 18 18 18 18 18 18 18 18 18 18 18 18 18 18 18 18 18 18 18 18 18 18 18
28 31 30 30 29 29 28 28 27 26 26 25 24 24 23 20 19 19 19 19 18 18 19 19 19 18 18 18 18 18 18 18 18 18 18 18 18 18 18 18 18 18 18 18 18 18 18 18 18
30 31 30 31 30 30 29 28 27 27 26 25 24 22 21 20 20 20 20 20 19 19 19 19 19 19 19 18 18 18 18 18 18 18 18 18 18 18 18 18 18 18 18 18 18 18 18 18 18
30 30 31 30 30 29 29 28 28 28 28 26 24 22 21 20 21 21 21 20 20 19 19 19 19 19 19 18 18 18 18 18 18 18 18 18 18 18 18 18 18 18 18 18 18 18 18 18 18
31 31 30 30 29 29 29 28 28 28 27 26 24 22 21 21 21 21 21 21 20 19 19 19 19 19 18 18 18 18 18 18 18 18 18 18 18 18 18 18 18 18 18 18 18 18 18 18 18
31 31 30 29 29 29 29 28 28 27 26 25 24 22 22 22 21 21 21 20 20 19 19 19 19 18 18 18 18 18 18 18 18 18 18 18 18 18 18 18 18 18 18 18 18 18 18 18 18
30 30 30 29 29 29 29 28 28 26 25 24 24 23 23 22 22 21 20 20 20 19 19 19 19 19 19 19 18 18 18 18 18 18 18 18 18 18 18 18 18 18 18 18 18 18 18 18 18
30 31 31 30 30 29 29 29 28 26 25 25 24 23 23 22 22 21 21 20 20 19 19 19 19 19 19 18 18 18 18 18 18 18 18 18 18 18 18 18 18 18 18 18 18 18 18 18 18
31 31 31 31 30 29 30 29 29 26 25 25 24 24 23 22 22 21 21 20 20 20 19 19 19 19 19 19 19 18 18 18 18 18 18 18 18 18 18 18 18 18 18 18 18 18 18 18 18
32 31 31 31 31 31 30 30 29 26 26 26 25 24 23 23 22 21 21 20 20 20 20 20 19 19 19 19 19 18 18 18 18 18 18 18 18 18 18 18 18 18 18 18 18 18 18 18 18
31 31 31 31 31 31 31 30 29 27 27 26 25 25 24 23 22 22 21 21 20 20 20 20 20 19 19 19 19 18 18 18 18 18 18 18 18 18 18 18 18 18 18 18 18 18 18 18 18
32 31 31 31 31 31 31 30 30 28 27 27 26 25 24 24 23 22 21 21 21 20 20 20 19 19 19 19 19 19 19 19 19 19 18 18 18 18 18 18 18 18 18 18 18 18 18 18 18
31 31 31 31 31 30 30 30 30 29 28 27 27 26 25 24 24 22 22 21 21 21 20 20 20 19 19 19 19 19 19 19 19 19 18 19 18 18 18 18 18 18 18 18 18 18 18 18 18
31 31 31 31 31 30 30 30 30 29 28 27 26 26 26 25 24 23 22 22 21 21 20 20 20 20 20 19 19 19 19 19 19 19 19 19 18 18 18 18 18 18 18 18 18 18 18 18 18
31 32 31 31 31 31 30 30 30 30 29 28 27 26 26 25 24 23 22 22 22 21 21 20 20 20 20 20 19 19 19 19 19 19 19 18 18 18 18 18 18 18 18 18 18 18 18 18 18
31 31 31 31 31 31 31 31 31 30 29 29 28 27 26 26 25 24 23 22 22 21 21 21 20 20 20 20 20 19 19 19 19 19 19 19 18 18 18 18 18 18 18 18 18 18 18 18 18
31 31 31 31 31 30 30 30 30 31 30 30 29 27 26 25 25 24 23 22 22 21 21 21 20 20 20 20 19 19 19 19 19 19 19 19 19 18 18 18 18 18 18 18 18 18 18 18 18
31 31 30 30 30 30 30 30 30 31 30 30 29 27 26 25 25 24 23 22 22 21 21 21 20 20 20 20 19 19 19 19 19 19 18 18 18 18 18 18 18 18 18 18 18 18 18 17 17
31 31 30 29 30 31 30 30 31 31 30 29 28 27 26 26 25 24 23 23 22 21 21 21 20 20 20 20 20 19 19 19 18 18 18 18 18 18 18 18 18 18 18 18 18 17 17 17 17
31 31 32 31 30 30 31 30 31 30 30 29 29 28 27 26 25 24 23 23 22 22 21 21 20 20 20 20 19 19 19 19 19 18 18 18 18 18 18 18 18 18 18 18 18 17 17 17 17
31 32 31 31 29 29 30 30 30 30 30 29 29 28 27 26 25 24 23 23 22 22 21 21 20 20 20 19 19 19 19 19 19 18 18 18 18 18 18 18 17 17 17 17 17 17 17 17 17
30 30 30 31 30 29 29 30 31 30 30 29 29 28 27 26 25 24 23 23 22 22 21 21 20 20 20 19 19 19 19 19 19 18 18 18 18 18 18 18 17 17 17 17 17 17 17 17 16
31 31 30 30 29 29 30 30 31 30 30 29 28 27 26 25 25 24 23 23 22 22 21 21 20 20 20 19 19 19 19 18 18 18 18 18 18 18 18 17 17 17 17 17 17 16 16 16 16
Wind_Speed
10 8 5 4 3 4 9 8 7 7 6 7 7 6 7 8 6 7 6 8 9 10 11 12 11 11 12 12 12 12 13 14 14 14 13 13 13 13 12 12 11 11 10 10 10 10 10 9 9
7 6 5 3 1 7 9 8 9 9 7 7 7 7 8 8 8 8 8 8 9 10 11 11 12 11 11 11 11 12 12 13 13 13 13 12 12 12 12 11 11 10 10 9 9 9 9 8 8
6 6 3 1 7 9 8 8 9 8 7 5 5 6 6 6 7 7 9 10 10 10 11 12 10 10 10 10 11 11 11 12 12 12 12 11 11 11 10 10 9 9 9 8 8 8 8 7 7
4 4 1 4 11 10 8 8 7 7 7 5 5 7 6 6 5 9 12 11 11 10 11 13 10 10 10 10 10 10 10 11 11 11 11 10 10 9 9 8 8 7 7 7 7 7 6 6 5
4 1 4 8 11 9 7 6 5 5 5 5 5 8 8 6 9 12 12 10 10 10 11 13 10 9 10 9 9 10 10 9 9 9 9 9 8 8 8 7 7 6 6 5 5 5 5 5 4
2 1 5 9 9 8 7 6 5 6 7 7 8 9 7 8 10 11 11 10 9 9 10 12 11 9 8 8 8 8 8 8 9 8 7 7 7 7 6 6 5 5 5 5 4 4 4 4 3
1 3 7 8 8 7 6 4 4 5 6 6 6 8 8 10 11 11 10 9 8 8 9 9 11 10 9 8 7 7 7 7 7 6 6 6 6 6 5 5 4 4 4 4 3 3 3 3 3
2 1 6 7 7 8 6 5 4 4 6 7 4 6 9 12 12 11 10 9 8 7 7 8 8 8 8 9 8 6 6 6 6 5 5 5 5 6 6 6 5 4 4 4 4 3 3 3 3
3 2 7 7 6 6 6 5 5 5 7 6 4 7 12 16 14 12 11 9 8 7 6 6 7 7 6 6 8 7 7 6 5 6 5 3 3 4 6 5 5 3 3 3 3 3 4 5 7
0 5 8 6 5 5 5 5 5 5 7 7 9 11 15 15 14 13 11 11 10 9 7 6 6 6 5 5 6 4 4 5 3 4 3 2 2 2 2 6 5 4 4 5 5 5 7 8 6
4 6 6 5 5 4 5 5 5 5 5 7 11 15 15 15 13 12 11 10 9 9 7 7 5 5 4 4 4 3 3 4 3 3 2 2 1 2 2 2 4 4 5 3 5 6 4 3 2
5 5 4 4 4 4 5 5 5 4 5 7 12 16 15 14 12 11 10 9 8 8 8 7 6 4 4 3 3 3 2 2 2 3 1 2 1 0 1 0 0 1 1 1 1 2 2 2 2
4 4 4 4 4 4 5 5 5 5 6 10 13 14 14 13 12 10 9 9 8 8 8 7 7 5 4 3 3 3 3 2 3 2 2 1 1 0 0 0 1 1 0 1 1 1 1 2 3
3 3 3 3 5 5 5 5 4 6 9 12 13 13 13 12 11 10 10 9 8 8 8 7 8 7 6 5 4 3 3 3 2 3 2 2 1 1 1 1 1 1 1 1 1 1 2 2 2
3 3 4 5 4 4 5 4 5 8 10 12 12 12 11 11 11 10 10 9 9 8 8 7 8 8 7 6 5 4 4 4 3 2 2 2 2 2 2 2 2 1 1 2 2 2 2 3 2
4 4 3 4 3 4 5 3 7 9 11 11 11 11 11 11 11 10 10 9 9 9 8 8 7 8 8 6 5 4 4 3 3 3 3 3 2 2 3 2 2 1 2 2 2 2 2 2 2
4 1 2 4 3 3 4 1 7 9 10 10 10 11 11 11 11 11 10 10 9 9 9 9 8 7 7 7 5 5 4 4 4 3 3 2 3 3 3 2 1 3 2 2 2 1 2 2 2
1 1 0 0 2 4 4 1 6 9 9 9 10 11 11 11 12 12 11 10 10 9 9 9 9 8 7 6 5 5 4 4 4 3 3 3 4 4 4 3 2 3 2 2 2 2 2 3 3
4 3 2 1 0 4 4 3 4 9 10 10 10 10 11 11 11 11 11 11 10 10 10 10 10 9 8 6 6 6 5 5 4 4 4 4 4 4 4 3 2 3 3 3 4 3 3 3 3
6 5 3 1 0 3 4 4 4 8 10 9 10 11 11 11 11 11 11 12 12 11 11 10 10 10 9 7 6 5 4 4 4 3 3 4 4 4 4 3 3 3 3 3 3 3 3 3 3
6 5 4 3 1 4 4 5 5 7 8 8 9 10 11 11 11 12 12 12 12 12 11 10 10 10 10 8 7 5 4 5 5 4 3 3 4 4 3 3 3 3 4 3 3 4 4 3 3
6 3 4 5 6 3 4 4 4 5 7 8 10 11 11 11 11 11 12 12 11 11 11 11 10 10 9 9 8 8 7 6 5 4 3 3 3 3 3 3 3 4 3 3 4 2 3 4 4
4 3 5 7 7 7 5 6 1 4 5 6 8 10 11 10 11 11 11 11 10 10 9 9 9 9 9 9 9 8 8 6 4 4 3 3 2 2 2 2 2 3 3 3 3 2 3 3 4
4 5 6 8 8 7 4 6 2 1 2 3 6 8 9 9 9 9 10 10 9 9 9 9 9 9 9 9 8 8 7 6 5 4 3 3 2 2 2 1 2 2 2 2 3 2 2 2 3
8 8 6 7 7 4 2 6 2 1 1 2 4 7 8 9 10 10 11 10 10 10 10 9 9 9 9 9 8 8 7 6 6 5 4 4 3 2 2 2 1 2 2 2 2 2 2 2 3
9 10 8 7 6 4 5 5 2 1 1 2 3 6 7 8 9 10 10 11 10 11 10 10 10 9 9 9 8 7 6 6 5 5 3 3 3 2 1 2 2 2 2 2 2 2 2 2 3
8 9 8 9 10 9 5 5 4 3 3 3 4 5 7 7 8 9 9 10 11 10 10 10 10 9 8 7 7 6 6 5 5 4 4 3 3 2 2 2 2 2 2 2 3 2 2 2 3
8 7 7 9 8 9 8 7 4 4 4 3 4 4 5 6 7 8 8 9 10 10 10 10 10 10 9 8 7 6 6 6 5 5 5 4 3 2 3 3 3 3 2 2 2 2 2 3 3
8 9 9 8 9 10 9 5 1 3 3 4 4 4 5 6 6 6 7 7 9 9 9 9 10 9 9 8 7 6 6 7 6 6 5 4 4 3 3 3 3 3 3 2 2 3 2 3 3
9 10 11 10 9 10 11 6 1 2 2 3 3 3 4 4 5 5 6 7 8 9 9 9 9 9 9 8 7 7 7 7 7 6 5 5 5 4 4 4 4 4 3 3 3 3 2 3 4
Wind_Direction
187 187 206 232 217 91 70 65 71 81 77 76 77 71 69 52 48 86 105 116 115 118 116 111 103 104 102 102 103 108 108 113 121 125 128 127 125 123 123 123 121 119 117 116 115 114 114 112 110
173 184 222 243 67 83 71 67 72 73 93 105 89 79 77 70 69 101 119 120 122 116 115 108 108 107 105 104 106 109 111 117 121 124 127 126 126 126 127 125 122 119 117 117 116 115 114 113 111
181 219 262 29 56 65 76 77 84 89 100 104 94 67 62 80 96 112 123 131 126 117 115 110 114 112 110 108 108 109 109 116 121 123 125 126 127 129 128 125 122 118 118 118 117 119 118 118 117
211 220 222 79 74 68 80 92 101 105 99 92 101 91 82 73 100 119 131 135 128 125 121 113 115 111 110 108 105 105 105 111 117 121 124 126 127 128 128 126 123 121 120 120 123 124 123 124 125
239 251 99 86 81 81 82 92 105 90 89 99 103 101 96 89 110 125 135 136 130 126 121 118 116 114 112 111 109 106 105 107 112 118 124 127 129 128 128 130 132 131 129 127 126 130 131 134 138
240 218 87 83 85 88 92 105 106 92 99 107 113 109 99 120 128 134 136 136 130 127 124 123 125 117 116 114 113 110 109 109 112 116 123 130 130 132 135 140 142 140 135 133 133 134 140 145 151
346 58 79 86 92 93 91 103 99 99 106 110 120 113 121 135 136 138 137 134 131 130 128 129 133 132 130 119 114 112 110 110 110 112 119 127 134 138 147 152 154 153 148 149 156 153 158 164 173
307 96 89 87 88 89 103 106 91 99 100 113 127 124 140 145 144 142 140 138 135 136 134 133 130 130 135 131 123 117 114 112 113 116 116 125 144 155 162 168 158 164 165 167 173 176 181 186 194
259 93 79 76 78 96 119 120 107 109 120 118 103 108 128 141 148 148 147 145 147 147 146 138 135 137 134 128 129 137 137 131 145 139 139 171 157 144 163 126 133 160 168 176 182 191 198 204 194
307 70 68 64 76 107 128 124 130 141 137 130 123 118 132 147 157 159 158 159 160 160 157 148 147 144 138 137 130 131 130 120 129 109 120 127 113 125 134 126 160 174 184 191 188 198 207 222 197
66 68 67 74 86 113 131 131 140 148 140 143 147 145 150 158 164 165 163 165 163 163 163 159 153 149 145 141 130 112 111 115 123 104 99 101 148 163 149 143 167 176 191 191 175 202 212 214 216
83 67 66 79 96 122 129 129 129 122 97 128 143 150 157 165 169 170 166 166 165 168 169 162 158 162 164 149 133 133 126 127 122 117 146 132 112 336 69 153 158 190 167 179 221 196 207 229 232
91 77 69 83 109 120 131 127 120 122 120 135 143 154 163 170 171 173 170 170 173 176 178 173 171 173 174 172 184 149 154 165 157 159 159 202 194 242 261 330 300 277 211 197 208 217 205 228 226
84 90 92 110 118 134 138 133 142 135 143 149 156 164 170 174 175 174 179 182 184 185 182 178 183 180 183 185 191 172 175 182 192 183 181 218 234 241 261 237 260 263 270 307 276 246 246 251 251
156 144 133 123 131 144 157 141 140 144 156 161 166 172 174 179 182 185 185 188 187 186 186 185 187 186 189 195 198 189 194 186 192 185 189 229 249 250 265 263 249 238 242 226 237 245 247 246 243
194 198 141 131 158 175 228 108 130 153 168 172 176 179 183 187 190 192 190 193 191 191 189 193 194 188 191 196 203 205 202 197 208 208 204 225 256 249 260 261 264 263 258 238 231 239 253 263 268
203 212 87 132 171 197 235 120 139 167 177 180 185 187 190 190 196 197 197 197 198 197 193 194 199 200 199 195 203 211 207 220 227 222 222 218 238 241 256 273 287 258 250 256 257 252 271 265 271
283 298 321 61 169 235 240 205 154 177 188 188 188 192 195 197 198 198 200 199 200 199 198 198 198 203 205 201 203 213 216 223 228 228 225 236 238 237 262 261 259 261 248 250 266 269 263 268 260
279 271 286 14 100 253 245 239 185 182 195 197 198 198 200 202 196 195 198 200 199 198 200 202 204 197 200 204 208 206 212 220 222 226 225 235 241 236 247 276 265 263 254 261 262 263 252 255 252
249 253 251 209 63 262 265 251 211 194 204 208 205 204 204 200 194 193 196 198 199 196 198 200 205 203 204 203 211 215 225 230 232 245 239 243 238 239 230 242 260 268 269 258 259 256 266 263 252
242 260 282 294 263 221 259 225 200 196 205 213 216 212 207 202 196 192 195 199 199 197 198 203 203 204 209 206 210 211 213 236 233 236 235 246 245 244 264 252 261 270 270 259 257 253 250 259 259
246 254 264 263 264 267 255 275 184 194 203 210 214 213 211 205 204 199 196 199 200 199 197 201 201 203 205 206 214 216 221 228 233 234 232 232 236 247 249 253 260 270 278 267 256 254 264 258 261
270 254 254 260 264 269 248 275 177 181 214 209 206 208 207 204 203 201 200 199 199 196 195 194 196 200 204 210 213 219 228 231 233 227 221 239 226 236 258 264 259 262 273 280 285 285 275 262 267
214 224 229 239 249 252 256 272 265 159 236 214 191 191 197 198 201 202 198 194 194 192 192 189 188 194 198 205 211 216 225 223 223 224 221 225 218 219 236 249 263 267 274 267 264 267 257 274 282
220 240 246 240 237 247 205 260 274 43 279 230 196 183 187 193 195 195 193 189 188 188 189 187 185 192 195 199 205 207 214 214 217 226 220 229 233 225 226 249 247 264 266 270 274 266 280 263 265
231 250 263 274 276 266 216 252 250 144 212 208 193 180 181 187 187 190 190 189 187 188 189 190 188 190 192 195 198 198 202 211 213 217 228 222 241 248 236 238 236 248 250 259 264 263 263 261 259
236 244 268 271 272 273 257 244 225 197 194 184 181 178 182 185 185 186 186 188 189 189 188 189 186 187 187 186 185 189 196 209 210 207 219 224 225 228 221 234 227 237 243 256 264 271 276 277 272
253 251 251 258 267 270 260 249 246 213 219 205 203 196 192 186 183 181 182 183 184 186 185 184 182 184 183 180 188 187 195 206 211 216 215 222 222 226 225 228 227 232 234 232 248 254 266 273 278
218 230 244 256 263 270 273 266 286 215 222 219 213 204 198 192 185 180 178 179 179 179 179 180 180 182 184 185 190 194 196 202 205 212 216 216 219 216 222 226 229 232 235 234 242 264 268 271 279
243 241 236 248 252 259 273 268 129 218 230 225 218 196 181 184 179 174 174 176 177 179 180 181 183 184 185 185 189 196 200 202 204 206 212 212 212 215 216 224 226 229 229 232 238 253 271 277 280
Height
1507 1507 1508 1509 1504 1501 1507 1506 1504 1506 1510 1515 1516 1516 1517 1519 1522 1532 1535 1533 1534 1535 1536 1536 1536 1536 1537 1537 1538 1539 1539 1539 1540 1542 1544 1545 1546 1548 1549 1550 1551 1552 1553 1554 1555 1556 1556 1557 1557
1508 1508 1510 1507 1499 1507 1512 1506 1508 1510 1515 1517 1518 1519 1520 1524 1528 1532 1533 1535 1536 1537 1538 1538 1538 1539 1539 1540 1540 1541 1542 1542 1543 1544 1546 1547 1548 1549 1550 1551 1552 1553 1554 1555 1556 1557 1557 1558 1558
1509 1509 1510 1501 1501 1507 1512 1509 1511 1514 1517 1518 1520 1522 1524 1528 1532 1533 1535 1536 1538 1539 1540 1539 1540 1541 1541 1542 1543 1543 1544 1544 1545 1546 1548 1548 1550 1551 1552 1553 1554 1554 1555 1556 1557 1557 1558 1559 1559
1511 1511 1507 1502 1508 1507 1507 1509 1513 1515 1518 1519 1520 1524 1528 1532 1534 1535 1536 1538 1540 1541 1542 1541 1542 1543 1543 1544 1545 1545 1546 1547 1547 1548 1549 1550 1551 1552 1553 1554 1555 1555 1556 1557 1557 1558 1559 1559 1560
1511 1507 1503 1505 1508 1508 1509 1512 1514 1514 1517 1520 1522 1525 1531 1534 1535 1536 1538 1540 1542 1543 1544 1544 1544 1545 1546 1546 1547 1547 1548 1549 1549 1550 1551 1552 1553 1553 1554 1555 1556 1556 1557 1558 1558 1559 1559 1560 1560
1510 1503 1504 1510 1510 1509 1511 1514 1515 1516 1519 1522 1523 1526 1533 1536 1536 1538 1540 1542 1543 1544 1546 1545 1545 1546 1547 1548 1549 1549 1550 1550 1551 1552 1552 1553 1554 1554 1555 1556 1556 1557 1558 1558 1559 1559 1560 1560 1561
1509 1502 1505 1507 1510 1510 1512 1514 1515 1516 1519 1522 1524 1526 1533 1536 1538 1539 1541 1543 1544 1546 1547 1548 1549 1548 1549 1550 1550 1551 1551 1552 1553 1553 1554 1554 1555 1555 1556 1556 1557 1557 1558 1559 1559 1559 1560 1561 1561
1509 1503 1503 1504 1508 1511 1513 1516 1517 1518 1521 1525 1526 1527 1532 1537 1538 1540 1542 1544 1545 1547 1548 1549 1550 1551 1552 1552 1552 1552 1553 1553 1554 1554 1555 1555 1556 1557 1557 1557 1557 1558 1558 1559 1559 1560 1560 1561 1561
1509 1503 1505 1505 1507 1510 1513 1515 1519 1521 1523 1526 1527 1529 1532 1536 1538 1541 1543 1545 1546 1547 1549 1550 1551 1552 1553 1554 1554 1554 1554 1555 1555 1556 1556 1557 1558 1559 1558 1558 1558 1558 1559 1559 1559 1560 1560 1561 1562
1506 1504 1505 1505 1506 1509 1513 1515 1518 1520 1522 1526 1529 1532 1534 1536 1539 1541 1543 1545 1546 1548 1549 1550 1552 1553 1554 1555 1555 1556 1557 1556 1557 1557 1557 1558 1558 1559 1559 1558 1558 1559 1559 1559 1559 1560 1560 1561 1563
1506 1505 1505 1507 1509 1511 1513 1515 1517 1518 1519 1524 1528 1532 1535 1537 1539 1541 1543 1545 1547 1548 1549 1551 1552 1553 1554 1555 1556 1557 1557 1557 1558 1558 1558 1558 1559 1560 1560 1560 1559 1559 1560 1560 1560 1561 1562 1562 1562
1508 1507 1508 1509 1511 1512 1513 1515 1517 1518 1521 1525 1528 1531 1534 1537 1539 1541 1543 1545 1547 1548 1549 1551 1552 1553 1554 1555 1557 1557 1558 1558 1559 1558 1558 1559 1559 1559 1560 1559 1560 1560 1560 1560 1560 1560 1561 1561 1561
1508 1509 1510 1511 1512 1513 1514 1515 1518 1521 1524 1526 1529 1532 1534 1536 1539 1541 1543 1545 1546 1548 1549 1550 1551 1552 1553 1554 1556 1557 1558 1559 1559 1558 1558 1559 1559 1559 1560 1559 1559 1559 1559 1560 1559 1560 1560 1560 1560
1510 1510 1511 1511 1512 1514 1514 1516 1518 1522 1525 1527 1530 1532 1534 1536 1538 1541 1542 1544 1546 1547 1548 1550 1550 1552 1553 1554 1555 1557 1558 1558 1559 1559 1559 1558 1559 1559 1559 1559 1558 1559 1559 1559 1559 1559 1559 1559 1560
1511 1509 1509 1510 1512 1513 1514 1515 1517 1521 1524 1527 1529 1531 1534 1536 1538 1540 1542 1543 1545 1546 1547 1549 1550 1551 1552 1554 1555 1557 1557 1558 1558 1559 1558 1558 1559 1558 1558 1558 1558 1558 1558 1557 1558 1558 1558 1558 1559
1507 1506 1509 1509 1510 1512 1513 1515 1517 1521 1523 1526 1528 1531 1533 1535 1537 1539 1541 1542 1544 1545 1546 1548 1550 1551 1552 1553 1555 1556 1557 1557 1558 1558 1558 1558 1558 1557 1557 1558 1558 1557 1557 1557 1557 1557 1557 1557 1557
1504 1508 1509 1508 1508 1509 1510 1511 1515 1519 1521 1524 1527 1529 1531 1534 1536 1538 1540 1541 1543 1544 1545 1547 1549 1550 1552 1553 1554 1555 1556 1556 1557 1558 1558 1557 1557 1557 1557 1557 1556 1556 1556 1556 1556 1556 1556 1556 1556
1510 1507 1508 1508 1506 1506 1507 1507 1512 1517 1519 1521 1524 1527 1529 1532 1534 1536 1538 1540 1541 1543 1544 1546 1547 1549 1550 1552 1553 1554 1555 1556 1556 1557 1556 1556 1556 1556 1556 1556 1555 1555 1555 1555 1554 1554 1554 1554 1554
1504 1506 1507 1505 1504 1506 1506 1507 1509 1514 1517 1519 1521 1524 1526 1529 1531 1534 1536 1538 1540 1541 1542 1544 1546 1547 1548 1550 1551 1553 1554 1554 1555 1555 1555 1555 1555 1555 1554 1555 1554 1554 1554 1553 1553 1553 1553 1553 1553
1504 1506 1505 1504 1504 1506 1505 1506 1505 1510 1513 1515 1518 1521 1523 1526 1529 1531 1533 1535 1537 1539 1540 1542 1544 1546 1547 1548 1549 1551 1552 1553 1553 1554 1553 1553 1553 1553 1554 1553 1553 1553 1552 1552 1552 1551 1552 1552 1551
1503 1503 1503 1505 1504 1504 1506 1506 1505 1506 1511 1514 1516 1517 1520 1522 1525 1528 1530 1532 1534 1536 1538 1540 1542 1543 1545 1546 1548 1549 1550 1550 1551 1552 1552 1551 1551 1551 1551 1551 1551 1551 1551 1551 1550 1549 1550 1550 1550
1504 1499 1501 1503 1506 1505 1506 1511 1502 1501 1505 1509 1511 1514 1516 1519 1522 1525 1527 1529 1532 1534 1536 1537 1539 1541 1542 1544 1545 1547 1547 1548 1549 1549 1550 1550 1549 1549 1549 1549 1549 1549 1550 1549 1549 1548 1548 1548 1548
1499 1498 1500 1501 1503 1505 1502 1507 1500 1498 1502 1503 1507 1510 1513 1516 1519 1522 1524 1526 1529 1531 1533 1535 1536 1538 1540 1541 1543 1544 1545 1546 1547 1547 1547 1548 1548 1547 1547 1547 1547 1547 1547 1547 1546 1546 1546 1546 1546
1498 1500 1500 1499 1499 1512 1505 1508 1506 1496 1498 1499 1502 1507 1510 1513 1516 1519 1521 1524 1526 1528 1530 1532 1533 1535 1537 1538 1540 1541 1542 1543 1544 1545 1545 1546 1546 1545 1545 1545 1545 1545 1545 1544 1544 1544 1544 1544 1544
1497 1502 1510 1513 1511 1509 1500 1505 1502 1494 1495 1497 1500 1504 1508 1510 1513 1516 1518 1521 1523 1525 1527 1529 1530 1532 1534 1535 1537 1538 1540 1541 1541 1542 1543 1543 1544 1544 1543 1543 1543 1543 1543 1543 1542 1542 1542 1542 1542
1494 1496 1511 1521 1515 1505 1501 1503 1494 1492 1496 1498 1500 1502 1505 1508 1510 1513 1515 1518 1520 1522 1524 1526 1528 1529 1531 1533 1534 1536 1537 1539 1540 1540 1541 1541 1542 1542 1541 1541 1541 1541 1541 1541 1541 1541 1540 1540 1539
1494 1493 1488 1498 1502 1507 1500 1495 1491 1491 1493 1496 1498 1501 1503 1506 1508 1510 1513 1515 1517 1519 1521 1523 1524 1526 1528 1530 1531 1533 1535 1536 1537 1538 1538 1540 1539 1540 1540 1539 1539 1539 1539 1539 1539 1539 1538 1538 1538
1489 1488 1492 1497 1514 1515 1505 1499 1495 1492 1492 1493 1495 1498 1502 1504 1506 1508 1510 1512 1514 1516 1518 1520 1522 1523 1525 1527 1529 1530 1532 1534 1535 1536 1536 1537 1537 1538 1538 1538 1538 1537 1537 1537 1537 1537 1536 1536 1535
1493 1493 1493 1493 1496 1508 1510 1500 1482 1487 1489 1492 1494 1497 1500 1502 1504 1506 1508 1510 1512 1514 1516 1517 1519 1521 1523 1524 1526 1528 1529 1531 1532 1533 1534 1535 1535 1535 1536 1536 1536 1536 1535 1535 1535 1535 1535 1534 1533
1485 1486 1490 1499 1502 1498 1500 1497 1481 1485 1487 1490 1493 1496 1498 1500 1502 1504 1506 1508 1509 1511 1513 1515 1516 1518 1520 1521 1523 1525 1527 1528 1530 1531 1532 1532 1533 1533 1533 1534 1534 1534 1534 1533 1533 1533 1533 1532 1531